Weather History for Madison, WI

Change the Weather History Date:

Friday, July 12, 2013

  Actual Average Record
Temperature  
Mean Temperature 69 °F 72 °F  
Max Temperature 82 °F 82 °F 104 °F (1936)
Min Temperature 56 °F 61 °F 45 °F (1975)
Degree Days  
Heating Degree Days 0 0  
Month to date heating degree days 2 0  
Since 1 June heating degree days 54 60  
Since 1 July heating degree days 2 0  
Cooling Degree Days 4 7  
Month to date cooling degree days 86 82  
Year to date cooling degree days 276 232  
Since 1 June cooling degree days 223 202  
Growing Degree Days 18 (Base 50)    
Moisture  
Dew Point 53 °F    
Average Humidity 63    
Maximum Humidity 93    
Minimum Humidity 33    
Precipitation  
Precipitation 0.00 in 0.14 in 1.23 in (1937)
Month to date precipitation 1.66 1.69  
Year to date precipitation 32.61 18.06  
Snow  
Snow 0.00 in 0.00 in 0.00 in ()
Month to date snowfall 0.0 0.0  
Since 1 June snowfall 0.0 0.0  
Since 1 July snowfall 0.0 0.0  
Snow Depth 0.00 in    
Sea Level Pressure  
Sea Level Pressure 30.11 in    
Wind  
Wind Speed 5 mph (South)    
Max Wind Speed 13 mph    
Max Gust Speed 15 mph    
Visibility 10 miles    
Events      
T = Trace of Precipitation, MM = Missing Value Source: NWS Daily Summary

Daily Weather History Graph

Daily Weather History Graph

Search for Another Location

Airport:

Trip Planner

Search our weather history database for the weather conditions in past years. The results will help you decide how hot, cold, wet, or windy it might be!

Date:

Astronomy

Jul. 12, 2013 Rise Set
Actual Time 5:29 AM CDT 8:36 PM CDT
Civil Twilight 4:54 AM CDT 9:10 PM CDT
Nautical Twilight 4:10 AM CDT 9:55 PM CDT
Astronomical Twilight 3:17 AM CDT 10:47 PM CDT
Moon 9:54 AM CDT (7/12) 10:37 PM CDT (7/12)
Length of Visible Light 16h 16m
Length of Day
15h 07m
Waxing Crescent, 17% of the Moon is Illuminated
Jul 12
Waxing Crescent
Jul 15
First Quarter
Jul 22
Full
Jul 29
Last Quarter
Aug 6
New

Hourly Weather History & Observations

Time (CDT) Temp. Heat Index Dew Point Humidity Pressure Visibility Wind Dir Wind Speed Gust Speed Precip Events Conditions
12:53 AM 66.9 °F - 55.9 °F 68% 30.10 in 10.0 mi South 5.8 mph - N/A   Clear
1:53 AM 62.1 °F - 57.0 °F 84% 30.12 in 10.0 mi Calm Calm - N/A   Clear
2:53 AM 60.1 °F - 55.9 °F 86% 30.10 in 10.0 mi Calm Calm - N/A   Clear
3:53 AM 57.9 °F - 55.0 °F 90% 30.10 in 10.0 mi Calm Calm - N/A   Clear
4:53 AM 57.0 °F - 54.0 °F 89% 30.11 in 10.0 mi Calm Calm - N/A   Clear
5:53 AM 55.9 °F - 54.0 °F 93% 30.14 in 10.0 mi Calm Calm - N/A   Clear
6:53 AM 63.0 °F - 57.0 °F 81% 30.14 in 10.0 mi Calm Calm - N/A   Clear
7:53 AM 68.0 °F - 54.0 °F 61% 30.16 in 10.0 mi South 3.5 mph - N/A   Clear
8:53 AM 72.0 °F - 50.0 °F 46% 30.16 in 10.0 mi South 5.8 mph - N/A   Clear
9:53 AM 73.9 °F - 50.0 °F 43% 30.15 in 10.0 mi SSW 4.6 mph - N/A   Clear
10:53 AM 77.0 °F - 54.0 °F 45% 30.15 in 10.0 mi Calm Calm - N/A   Clear
11:53 AM 78.1 °F - 53.1 °F 42% 30.13 in 10.0 mi Variable 3.5 mph - N/A   Clear
12:53 PM 80.1 °F 80.1 °F 55.0 °F 42% 30.12 in 10.0 mi South 10.4 mph - N/A   Clear
1:53 PM 80.1 °F 79.9 °F 53.1 °F 39% 30.12 in 10.0 mi South 9.2 mph - N/A   Clear
2:53 PM 81.0 °F - 48.9 °F 33% 30.12 in 10.0 mi SW 8.1 mph - N/A   Clear
3:53 PM 81.0 °F - 52.0 °F 36% 30.11 in 10.0 mi South 8.1 mph - N/A   Clear
4:53 PM 82.0 °F - 51.1 °F 34% 30.09 in 10.0 mi SSE 5.8 mph - N/A   Clear
5:53 PM 81.0 °F - 52.0 °F 36% 30.07 in 10.0 mi SSW 6.9 mph - N/A   Clear
6:53 PM 80.1 °F - 51.1 °F 36% 30.08 in 10.0 mi South 6.9 mph - N/A   Clear
7:53 PM 78.1 °F - 52.0 °F 40% 30.07 in 10.0 mi SSE 6.9 mph - N/A   Clear
8:53 PM 70.0 °F - 54.0 °F 57% 30.08 in 10.0 mi Calm Calm - N/A   Clear
9:53 PM 70.0 °F - 53.1 °F 55% 30.08 in 10.0 mi SSE 6.9 mph - N/A   Clear
10:53 PM 71.1 °F - 53.1 °F 53% 30.07 in 10.0 mi South 4.6 mph - N/A   Clear
11:53 PM 69.1 °F - 55.0 °F 61% 30.08 in 10.0 mi South 10.4 mph - N/A   Clear